Morristown, NJ

5:33 AM EST on December 10, 2019 (GMT -0500)
Morristown Municipal

Weather History for KMMU - November, 2019

Change the Weather History Date:

Tuesday, November 19, 2019

  Actual Average Record
Temperature  
Mean Temperature 42 °F -  
Max Temperature 46 °F 53 °F 75 °F (1941)
Min Temperature 37 °F 30 °F 14 °F (1936)
Degree Days  
Heating Degree Days 24    
Moisture  
Dew Point 38 °F    
Average Humidity 90    
Maximum Humidity 100    
Minimum Humidity 70    
Precipitation  
Precipitation 0.10 in - - ()
Sea Level Pressure  
Sea Level Pressure 29.78 in    
Wind  
Wind Speed 1 mph ()    
Max Wind Speed 9 mph    
Max Gust Speed -    
Visibility 8.0 miles    
Events Rain    
Averages and records for this station are not official NWS values.
T = Trace of Precipitation, MM = Missing Value Source: Averaged Metar Reports

Daily Weather History Graph

Daily Weather History Graph

Search for Another Location

Airport or City:

Astronomy

Nov. 19, 2019 Rise Set
Actual Time 6:49 AM EST 4:36 PM EST
Civil Twilight 6:19 AM EST 5:06 PM EST
Nautical Twilight 5:45 AM EST 5:39 PM EST
Astronomical Twilight 5:13 AM EST 6:12 PM EST
Moon 11:29 PM EST (11/19) 12:57 PM EST (11/19)
Length of Visible Light 10h 46m
Length of Day
9h 47m
Waning Gibbous, 52% of the Moon is Illuminated
Nov 19
Waning Gibbous
Nov 19
Last Quarter
Nov 26
New
Dec 4
First Quarter
Dec 12
Full

Hourly Weather History & Observations

Time (EST) Temp. Windchill Dew Point Humidity Pressure Visibility Wind Dir Wind Speed Gust Speed Precip Events Conditions
12:15 AM 39.2 °F - 39.2 °F 100% 29.72 in 2.0 mi Calm Calm - N/A   Overcast
12:35 AM 39.2 °F 37.0 °F 39.2 °F 100% 29.72 in 2.0 mi SW 3.5 mph - 0.01 in   Drizzle
12:55 AM 39.2 °F - 39.2 °F 100% 29.72 in 2.0 mi Calm Calm - N/A   Drizzle
1:35 AM 39.2 °F - 39.2 °F 100% 29.71 in 5.0 mi Calm Calm - 0.06 in Rain Rain
1:55 AM 39.2 °F - 39.2 °F 100% 29.72 in 7.0 mi Calm Calm - N/A Rain Light Rain
2:15 AM 39.2 °F - 39.2 °F 100% 29.72 in 10.0 mi Calm Calm - N/A Rain Light Rain
2:35 AM 39.2 °F - 39.2 °F 100% 29.72 in 10.0 mi Calm Calm - N/A Rain Light Rain
2:55 AM 39.2 °F - 39.2 °F 100% 29.72 in 7.0 mi Calm Calm - N/A Rain Rain
3:15 AM 39.2 °F - 39.2 °F 100% 29.72 in 4.0 mi Calm Calm - 0.03 in Rain Rain
3:35 AM 39.2 °F - 39.2 °F 100% 29.72 in 10.0 mi Calm Calm - 0.04 in   Overcast
3:55 AM 39.2 °F - 39.2 °F 100% 29.72 in 10.0 mi Calm Calm - N/A Rain Light Rain
4:15 AM 39.2 °F - 39.2 °F 100% 29.72 in 7.0 mi Calm Calm - N/A   Overcast
4:35 AM 39.2 °F - 39.2 °F 100% 29.72 in 10.0 mi Calm Calm - N/A   Overcast
4:55 AM 39.2 °F 37.0 °F 39.2 °F 100% 29.73 in 10.0 mi South 3.5 mph - N/A   Overcast
5:15 AM 39.2 °F - 39.2 °F 100% 29.73 in 7.0 mi Calm Calm - N/A   Overcast
5:35 AM 39.2 °F - 39.2 °F 100% 29.74 in 7.0 mi Calm Calm - N/A   Overcast
5:55 AM 39.2 °F - 39.2 °F 100% 29.74 in 5.0 mi Calm Calm - N/A   Overcast
6:15 AM 39.2 °F - 39.2 °F 100% 29.75 in 5.0 mi Calm Calm - N/A   Overcast
6:35 AM 39.2 °F - 39.2 °F 100% 29.76 in 4.0 mi Calm Calm - N/A   Overcast
6:45 AM 41.0 °F - 41.0 °F 100% 29.76 in 4.0 mi Calm Calm - N/A   Overcast
6:50 AM 41.0 °F - 41.0 °F 100% 29.76 in 4.0 mi North - - N/A   Overcast
7:45 AM 41.0 °F 39.0 °F 41.0 °F 100% 29.78 in 5.0 mi West 3.5 mph - N/A   Overcast
8:45 AM 42.8 °F 41.1 °F 41.0 °F 93% 29.79 in 7.0 mi West 3.5 mph - N/A   Overcast
9:45 AM 44.6 °F 40.2 °F 39.2 °F 81% 29.80 in 10.0 mi WNW 8.1 mph - N/A   Overcast
10:45 AM 44.6 °F 40.2 °F 39.2 °F 81% 29.80 in 10.0 mi WNW 8.1 mph - N/A   Overcast
11:45 AM 44.6 °F 41.4 °F 39.2 °F 81% 29.79 in 10.0 mi NNW 5.8 mph - N/A   Overcast
12:10 PM 46.4 °F 44.3 °F 39.2 °F 76% 29.79 in 10.0 mi NNW 4.6 mph - N/A   Overcast
12:45 PM 46.4 °F 41.9 °F 39.2 °F 76% 29.78 in 10.0 mi WNW 9.2 mph - N/A   Overcast
1:45 PM 46.4 °F 41.9 °F 37.4 °F 71% 29.79 in 10.0 mi NW 9.2 mph - N/A   Overcast
2:45 PM 46.4 °F 43.5 °F 37.4 °F 71% 29.80 in 10.0 mi NW 5.8 mph - N/A   Overcast
3:45 PM 46.4 °F 45.2 °F 37.4 °F 71% 29.82 in 10.0 mi NNW 3.5 mph - N/A   Overcast
4:50 PM 42.8 °F 40.1 °F 37.4 °F 81% 29.83 in 10.0 mi North 4.6 mph - N/A   Mostly Cloudy
5:45 PM 39.2 °F - 35.6 °F 87% 29.84 in 10.0 mi Calm Calm - N/A   Mostly Cloudy
6:45 PM 37.4 °F - 37.4 °F 100% 29.87 in 10.0 mi Calm Calm - N/A   Overcast
8:45 PM 39.2 °F - 37.4 °F 93% 29.89 in 10.0 mi Calm Calm - N/A   Overcast
8:46 PM 39.2 °F - 37.4 °F 93% 29.89 in 10.0 mi Calm Calm - N/A   Overcast
9:50 PM 39.2 °F - 35.6 °F 87% 29.89 in 10.0 mi Calm Calm - N/A   Scattered Clouds
10:15 PM 41.0 °F 39.0 °F 32.0 °F 70% 29.87 in 10.0 mi NW 3.5 mph - N/A   Scattered Clouds
10:35 PM 41.0 °F 39.0 °F 32.0 °F 70% 29.87 in 10.0 mi NW 3.5 mph - N/A   Overcast
10:55 PM 41.0 °F 39.0 °F 32.0 °F 70% 29.87 in 10.0 mi WNW 3.5 mph - N/A   Overcast
11:15 PM 41.0 °F - 32.0 °F 70% 29.87 in 10.0 mi Calm Calm - N/A   Overcast
11:35 PM 41.0 °F - 32.0 °F 70% 29.87 in 10.0 mi Calm Calm - N/A   Overcast
11:55 PM 41.0 °F - 32.0 °F 70% 29.87 in 10.0 mi Calm Calm - N/A   Overcast